contact:dominique.lefevre@mio.osupytheas.fr, maurice.libes@osupytheas.fr, didier.mallarino@osupytheas.fr
Project:EMSO http://www.emso-fr.org/EMSO-France
Depth: 2436.0 m
Title:EMSO Ligure Ouest : Data MII capteur CSTAR
DateTime,Latitude,Longitude,Instrument_Serial,Reference_Counts,Signal_Counts,Corrected_Signal_raw_counts,Calculated_Beam_c_inverse_meters,Internal_thermistor_counts
DateTime,Latitude,Longitude,Instrument_Serial,Reference_Counts,Signal_Counts,Corrected_Signal_raw_counts,Calculated_Beam_c_inverse_meters,Internal_thermistor_counts
2022-09-04T00:02:13,42.805,6.029,CST-1368DR,4596,5152,11935,01.075,551
2022-09-04T00:05:15,42.805,6.029,CST-1368DR,4596,5148,11926,01.078,551
2022-09-04T00:08:16,42.805,6.029,CST-1368DR,4596,5148,11925,01.079,551
2022-09-04T00:11:18,42.805,6.029,CST-1368DR,4596,5146,11920,01.080,551
2022-09-04T00:14:20,42.805,6.029,CST-1368DR,4596,5148,11924,01.079,551
2022-09-04T00:17:21,42.805,6.029,CST-1368DR,4596,5147,11923,01.079,551
2022-09-04T00:20:23,42.805,6.029,CST-1368DR,4596,5145,11919,01.081,551
2022-09-04T00:23:24,42.805,6.029,CST-1368DR,4596,5146,11920,01.080,551
2022-09-04T00:26:26,42.805,6.029,CST-1368DR,4596,5145,11917,01.081,551
2022-09-04T00:29:28,42.805,6.029,CST-1368DR,4596,5148,11925,01.079,551
2022-09-04T00:32:29,42.805,6.029,CST-1368DR,4596,5146,11920,01.080,551
2022-09-04T00:35:31,42.805,6.029,CST-1368DR,4596,5147,11923,01.079,551
2022-09-04T00:38:32,42.805,6.029,CST-1368DR,4596,5149,11927,01.078,551
2022-09-04T00:41:34,42.805,6.029,CST-1368DR,4596,5145,11919,01.081,551
2022-09-04T00:44:35,42.805,6.029,CST-1368DR,4596,5149,11927,01.078,551
2022-09-04T00:47:37,42.805,6.029,CST-1368DR,4596,5148,11924,01.079,551
2022-09-04T00:50:39,42.805,6.029,CST-1368DR,4596,5149,11927,01.078,551
2022-09-04T00:53:40,42.805,6.029,CST-1368DR,4596,5149,11927,01.078,551
2022-09-04T00:56:42,42.805,6.029,CST-1368DR,4596,5149,11927,01.078,551
2022-09-04T00:59:43,42.805,6.029,CST-1368DR,4596,5147,11922,01.080,551
2022-09-04T01:02:45,42.805,6.029,CST-1368DR,4596,5147,11923,01.079,551
2022-09-04T01:05:46,42.805,6.029,CST-1368DR,4596,5146,11920,01.080,551
2022-09-04T01:08:48,42.805,6.029,CST-1368DR,4596,5151,11932,01.076,551
2022-09-04T01:11:50,42.805,6.029,CST-1368DR,4596,5149,11927,01.078,551
2022-09-04T01:14:51,42.805,6.029,CST-1368DR,4596,5153,11937,01.075,551
2022-09-04T01:17:53,42.805,6.029,CST-1368DR,4596,5152,11934,01.076,551
2022-09-04T01:20:54,42.805,6.029,CST-1368DR,4596,5152,11934,01.076,551
2022-09-04T01:23:56,42.805,6.029,CST-1368DR,4595,5152,11938,01.074,551
2022-09-04T01:26:58,42.805,6.029,CST-1368DR,4595,5154,11941,01.073,550
2022-09-04T01:29:59,42.805,6.029,CST-1368DR,4596,5149,11927,01.078,551
2022-09-04T01:33:01,42.805,6.029,CST-1368DR,4596,5154,11940,01.074,551
2022-09-04T01:36:02,42.805,6.029,CST-1368DR,4596,5149,11928,01.078,551
2022-09-04T01:39:04,42.805,6.029,CST-1368DR,4596,5152,11935,01.075,551
2022-09-04T01:42:05,42.805,6.029,CST-1368DR,4596,5154,11938,01.074,551
2022-09-04T01:45:07,42.805,6.029,CST-1368DR,4596,5151,11933,01.076,551
2022-09-04T01:48:09,42.805,6.029,CST-1368DR,4596,5153,11937,01.075,551
2022-09-04T01:51:10,42.805,6.029,CST-1368DR,4596,5157,11946,01.072,551
2022-09-04T01:54:12,42.805,6.029,CST-1368DR,4596,5154,11938,01.074,551
2022-09-04T01:57:13,42.805,6.029,CST-1368DR,4595,5140,11910,01.084,551
2022-09-04T02:00:15,42.805,6.029,CST-1368DR,4595,5154,11941,01.073,551
2022-09-04T02:03:16,42.805,6.029,CST-1368DR,4595,5156,11946,01.072,551
2022-09-04T02:06:18,42.805,6.029,CST-1368DR,4595,5156,11947,01.071,551
2022-09-04T02:09:20,42.805,6.029,CST-1368DR,4595,5157,11948,01.071,551
2022-09-04T02:12:21,42.805,6.029,CST-1368DR,4595,5154,11941,01.073,551
2022-09-04T02:15:23,42.805,6.029,CST-1368DR,4595,5153,11940,01.074,551
2022-09-04T02:18:24,42.805,6.029,CST-1368DR,4595,5154,11942,01.073,551
2022-09-04T02:21:26,42.805,6.029,CST-1368DR,4595,5149,11930,01.077,551
2022-09-04T02:24:28,42.805,6.029,CST-1368DR,4595,5150,11932,01.076,551
2022-09-04T02:27:29,42.805,6.029,CST-1368DR,4595,5150,11933,01.076,551
2022-09-04T02:30:31,42.805,6.029,CST-1368DR,4595,5152,11937,01.075,551
2022-09-04T02:33:32,42.805,6.029,CST-1368DR,4595,5154,11942,01.073,551
2022-09-04T02:36:34,42.805,6.029,CST-1368DR,4595,5151,11934,01.076,551
2022-09-04T02:39:35,42.805,6.029,CST-1368DR,4595,5150,11933,01.076,551
2022-09-04T02:42:37,42.805,6.029,CST-1368DR,4595,5149,11930,01.077,551
2022-09-04T02:45:39,42.805,6.029,CST-1368DR,4595,5147,11926,01.078,551
2022-09-04T02:48:40,42.805,6.029,CST-1368DR,4595,5144,11919,01.081,551
2022-09-04T02:51:42,42.805,6.029,CST-1368DR,4596,5149,11927,01.078,551
2022-09-04T02:54:43,42.805,6.029,CST-1368DR,4595,5144,11919,01.081,551
2022-09-04T02:57:45,42.805,6.029,CST-1368DR,4595,5147,11926,01.078,551
2022-09-04T03:00:46,42.805,6.029,CST-1368DR,4595,5144,11919,01.081,551
2022-09-04T03:03:48,42.805,6.029,CST-1368DR,4595,5148,11927,01.078,551
2022-09-04T03:06:50,42.805,6.029,CST-1368DR,4595,5148,11928,01.078,551
2022-09-04T03:09:51,42.805,6.029,CST-1368DR,4596,5150,11930,01.077,551
2022-09-04T03:12:53,42.805,6.029,CST-1368DR,4595,5147,11925,01.079,551
2022-09-04T03:15:54,42.805,6.029,CST-1368DR,4595,5150,11933,01.076,551
2022-09-04T03:18:56,42.805,6.029,CST-1368DR,4595,5146,11922,01.080,551
2022-09-04T03:21:58,42.805,6.029,CST-1368DR,4595,5147,11925,01.079,551
2022-09-04T03:24:59,42.805,6.029,CST-1368DR,4595,5145,11922,01.080,551
2022-09-04T03:28:01,42.805,6.029,CST-1368DR,4595,5148,11929,01.077,551
2022-09-04T03:31:02,42.805,6.029,CST-1368DR,4595,5149,11929,01.077,551
2022-09-04T03:34:04,42.805,6.029,CST-1368DR,4595,5148,11928,01.078,551
2022-09-04T03:37:05,42.805,6.029,CST-1368DR,4595,5147,11926,01.078,551
2022-09-04T03:40:07,42.805,6.029,CST-1368DR,4595,5151,11936,01.075,551
2022-09-04T03:43:09,42.805,6.029,CST-1368DR,4595,5149,11929,01.077,551
2022-09-04T03:46:10,42.805,6.029,CST-1368DR,4595,5148,11927,01.078,551
2022-09-04T03:49:12,42.805,6.029,CST-1368DR,4595,5148,11927,01.078,551
2022-09-04T03:52:13,42.805,6.029,CST-1368DR,4595,5152,11938,01.074,551
2022-09-04T03:55:15,42.805,6.029,CST-1368DR,4595,5148,11928,01.078,551
2022-09-04T03:58:16,42.805,6.029,CST-1368DR,4595,5147,11926,01.078,551
2022-09-04T04:01:18,42.805,6.029,CST-1368DR,4595,5151,11936,01.075,551
2022-09-04T04:04:20,42.805,6.029,CST-1368DR,4595,5149,11930,01.077,551
2022-09-04T04:07:21,42.805,6.029,CST-1368DR,4596,5155,11942,01.073,551
2022-09-04T04:10:23,42.805,6.029,CST-1368DR,4596,5158,11948,01.071,551
2022-09-04T04:13:24,42.805,6.029,CST-1368DR,4595,5154,11942,01.073,551
2022-09-04T04:16:26,42.805,6.029,CST-1368DR,4595,5158,11952,01.070,551
2022-09-04T04:19:28,42.805,6.029,CST-1368DR,4595,5154,11941,01.073,551
2022-09-04T04:22:29,42.805,6.029,CST-1368DR,4596,5156,11943,01.073,551
2022-09-04T04:25:31,42.805,6.029,CST-1368DR,4596,5156,11944,01.072,551
2022-09-04T04:28:32,42.805,6.029,CST-1368DR,4595,5147,11926,01.078,551
2022-09-04T04:31:34,42.805,6.029,CST-1368DR,4596,5158,11949,01.071,551
2022-09-04T04:34:35,42.805,6.029,CST-1368DR,4595,5157,11949,01.071,551
2022-09-04T04:37:37,42.805,6.029,CST-1368DR,4596,5157,11947,01.071,551
2022-09-04T04:40:39,42.805,6.029,CST-1368DR,4596,5156,11943,01.073,551
2022-09-04T04:43:40,42.805,6.029,CST-1368DR,4596,5158,11948,01.071,551
2022-09-04T04:46:42,42.805,6.029,CST-1368DR,4595,5158,11950,01.070,551
2022-09-04T04:49:43,42.805,6.029,CST-1368DR,4596,5155,11941,01.073,551
2022-09-04T04:52:45,42.805,6.029,CST-1368DR,4595,5157,11948,01.071,551
2022-09-04T04:55:46,42.805,6.029,CST-1368DR,4596,5158,11949,01.071,551
2022-09-04T04:58:48,42.805,6.029,CST-1368DR,4596,5160,11954,01.069,551
2022-09-04T05:01:50,42.805,6.029,CST-1368DR,4595,5156,11947,01.071,551
2022-09-04T05:04:51,42.805,6.029,CST-1368DR,4595,5156,11945,01.072,551
2022-09-04T05:07:53,42.805,6.029,CST-1368DR,4595,5152,11937,01.075,551
2022-09-04T05:10:54,42.805,6.029,CST-1368DR,4595,5154,11942,01.073,551
2022-09-04T05:13:56,42.805,6.029,CST-1368DR,4595,5152,11936,01.075,551
2022-09-04T05:16:58,42.805,6.029,CST-1368DR,4595,5148,11929,01.077,551
2022-09-04T05:19:59,42.805,6.029,CST-1368DR,4595,5151,11934,01.076,551
2022-09-04T05:23:01,42.805,6.029,CST-1368DR,4595,5151,11936,01.075,551
2022-09-04T05:26:02,42.805,6.029,CST-1368DR,4595,5151,11936,01.075,551
2022-09-04T05:29:04,42.805,6.029,CST-1368DR,4595,5153,11939,01.074,551
2022-09-04T05:32:05,42.805,6.029,CST-1368DR,4595,5154,11942,01.073,551
2022-09-04T05:35:07,42.805,6.029,CST-1368DR,4595,5157,11948,01.071,551
2022-09-04T05:38:09,42.805,6.029,CST-1368DR,4595,5158,11950,01.070,551
2022-09-04T05:41:10,42.805,6.029,CST-1368DR,4595,5156,11945,01.072,551
2022-09-04T05:44:12,42.805,6.029,CST-1368DR,4595,5156,11946,01.072,551
2022-09-04T05:47:13,42.805,6.029,CST-1368DR,4595,5153,11940,01.074,551
2022-09-04T05:50:15,42.805,6.029,CST-1368DR,4595,5156,11945,01.072,551
2022-09-04T05:53:16,42.805,6.029,CST-1368DR,4595,5155,11944,01.072,551
2022-09-04T05:56:18,42.805,6.029,CST-1368DR,4595,5157,11948,01.071,551
2022-09-04T05:59:20,42.805,6.029,CST-1368DR,4595,5159,11953,01.069,551
2022-09-04T06:02:21,42.805,6.029,CST-1368DR,4595,5158,11950,01.070,551
2022-09-04T06:05:23,42.805,6.029,CST-1368DR,4595,5156,11947,01.071,551
2022-09-04T06:08:24,42.805,6.029,CST-1368DR,4595,5159,11952,01.070,551
2022-09-04T06:11:26,42.805,6.029,CST-1368DR,4595,5156,11947,01.071,551
2022-09-04T06:14:28,42.805,6.029,CST-1368DR,4595,5159,11952,01.070,551
2022-09-04T06:17:29,42.805,6.029,CST-1368DR,4595,5155,11943,01.073,551
2022-09-04T06:20:31,42.805,6.029,CST-1368DR,4595,5155,11944,01.072,551
2022-09-04T06:23:32,42.805,6.029,CST-1368DR,4595,5154,11941,01.073,551
2022-09-04T06:26:34,42.805,6.029,CST-1368DR,4595,5163,11962,01.066,551
2022-09-04T06:29:35,42.805,6.029,CST-1368DR,4595,5157,11948,01.071,551
2022-09-04T06:32:37,42.805,6.029,CST-1368DR,4595,5162,11959,01.067,551
2022-09-04T06:35:39,42.805,6.029,CST-1368DR,4595,5159,11953,01.069,551
2022-09-04T06:38:40,42.805,6.029,CST-1368DR,4595,5157,11948,01.071,551
2022-09-04T06:41:42,42.805,6.029,CST-1368DR,4595,5161,11959,01.067,551
2022-09-04T06:44:43,42.805,6.029,CST-1368DR,4595,5162,11959,01.067,551
2022-09-04T06:47:45,42.805,6.029,CST-1368DR,4595,5160,11955,01.069,551
2022-09-04T06:50:46,42.805,6.029,CST-1368DR,4595,5163,11962,01.066,551
2022-09-04T06:53:48,42.805,6.029,CST-1368DR,4595,5161,11958,01.068,551
2022-09-04T06:56:50,42.805,6.029,CST-1368DR,4595,5165,11967,01.065,551
2022-09-04T06:59:51,42.805,6.029,CST-1368DR,4595,5164,11964,01.066,551
2022-09-04T07:02:53,42.805,6.029,CST-1368DR,4595,5164,11966,01.065,551
2022-09-04T07:05:54,42.805,6.029,CST-1368DR,4595,5165,11967,01.065,551
2022-09-04T07:08:56,42.805,6.029,CST-1368DR,4595,5162,11959,01.067,551
2022-09-04T07:11:58,42.805,6.029,CST-1368DR,4595,5168,11974,01.062,551
2022-09-04T07:14:59,42.805,6.029,CST-1368DR,4595,5165,11967,01.065,551
2022-09-04T07:18:01,42.805,6.029,CST-1368DR,4595,5165,11968,01.064,551
2022-09-04T07:21:02,42.805,6.029,CST-1368DR,4595,5168,11973,01.063,551
2022-09-04T07:24:04,42.805,6.029,CST-1368DR,4595,5164,11964,01.066,551
2022-09-04T07:27:05,42.805,6.029,CST-1368DR,4595,5161,11957,01.068,551
2022-09-04T07:30:07,42.805,6.029,CST-1368DR,4595,5152,11937,01.075,551
2022-09-04T07:33:09,42.805,6.029,CST-1368DR,4595,5151,11934,01.076,551
2022-09-04T07:36:10,42.805,6.029,CST-1368DR,4595,5158,11951,01.070,551
2022-09-04T07:39:12,42.805,6.029,CST-1368DR,4595,5163,11963,01.066,551
2022-09-04T07:42:13,42.805,6.029,CST-1368DR,4595,5163,11962,01.066,551
2022-09-04T07:45:15,42.805,6.029,CST-1368DR,4595,5155,11944,01.072,551
2022-09-04T07:48:17,42.805,6.029,CST-1368DR,4595,5164,11965,01.065,551
2022-09-04T07:51:18,42.805,6.029,CST-1368DR,4595,5163,11962,01.066,551
2022-09-04T07:54:20,42.805,6.029,CST-1368DR,4595,5166,11969,01.064,551
2022-09-04T07:57:21,42.805,6.029,CST-1368DR,4595,5155,11944,01.072,551
2022-09-04T08:00:23,42.805,6.029,CST-1368DR,4595,5168,11975,01.062,551
2022-09-04T08:03:24,42.805,6.029,CST-1368DR,4595,5168,11973,01.063,551
2022-09-04T08:06:26,42.805,6.029,CST-1368DR,4595,5164,11966,01.065,551
2022-09-04T08:09:28,42.805,6.029,CST-1368DR,4595,5165,11967,01.065,551
2022-09-04T08:12:29,42.805,6.029,CST-1368DR,4595,5173,11985,01.059,551
2022-09-04T08:15:31,42.805,6.029,CST-1368DR,4595,5160,11956,01.068,551
2022-09-04T08:18:32,42.805,6.029,CST-1368DR,4595,5161,11958,01.068,551
2022-09-04T08:21:34,42.805,6.029,CST-1368DR,4595,5159,11952,01.070,551
2022-09-04T08:24:35,42.805,6.029,CST-1368DR,4595,5164,11965,01.065,551
2022-09-04T08:27:37,42.805,6.029,CST-1368DR,4595,5162,11960,01.067,551
2022-09-04T08:30:39,42.805,6.029,CST-1368DR,4595,5163,11962,01.066,551
2022-09-04T08:33:40,42.805,6.029,CST-1368DR,4595,5164,11964,01.066,551
2022-09-04T08:36:42,42.805,6.029,CST-1368DR,4595,5164,11965,01.065,551
2022-09-04T08:39:43,42.805,6.029,CST-1368DR,4595,5161,11958,01.068,551
2022-09-04T08:42:45,42.805,6.029,CST-1368DR,4595,5154,11942,01.073,551
2022-09-04T08:45:47,42.805,6.029,CST-1368DR,4595,5164,11964,01.066,551
2022-09-04T08:48:48,42.805,6.029,CST-1368DR,4595,5162,11960,01.067,551
2022-09-04T08:51:50,42.805,6.029,CST-1368DR,4595,5156,11946,01.072,551
2022-09-04T08:54:51,42.805,6.029,CST-1368DR,4595,5164,11965,01.065,551
2022-09-04T08:57:53,42.805,6.029,CST-1368DR,4595,5158,11950,01.070,551
2022-09-04T09:00:54,42.805,6.029,CST-1368DR,4595,5161,11958,01.068,551
2022-09-04T09:03:56,42.805,6.029,CST-1368DR,4595,5157,11949,01.071,551
2022-09-04T09:06:58,42.805,6.029,CST-1368DR,4595,5154,11942,01.073,551
2022-09-04T09:09:59,42.805,6.029,CST-1368DR,4595,5149,11930,01.077,551
2022-09-04T09:13:01,42.805,6.029,CST-1368DR,4595,5156,11946,01.072,551
2022-09-04T09:16:02,42.805,6.029,CST-1368DR,4595,5153,11940,01.074,551
2022-09-04T09:19:04,42.805,6.029,CST-1368DR,4595,5145,11922,01.080,551
2022-09-04T09:22:06,42.805,6.029,CST-1368DR,4595,5154,11941,01.073,551
2022-09-04T09:25:07,42.805,6.029,CST-1368DR,4595,5155,11944,01.072,551
2022-09-04T09:28:09,42.805,6.029,CST-1368DR,4595,5163,11962,01.066,551
2022-09-04T09:31:10,42.805,6.029,CST-1368DR,4595,5158,11950,01.070,551
2022-09-04T09:34:12,42.805,6.029,CST-1368DR,4595,5159,11954,01.069,551
2022-09-04T09:37:13,42.805,6.029,CST-1368DR,4595,5160,11955,01.069,551
2022-09-04T09:40:15,42.805,6.029,CST-1368DR,4595,5154,11942,01.073,551
2022-09-04T09:43:17,42.805,6.029,CST-1368DR,4595,5157,11949,01.071,551
2022-09-04T09:46:18,42.805,6.029,CST-1368DR,4595,5158,11951,01.070,551
2022-09-04T09:49:20,42.805,6.029,CST-1368DR,4595,5157,11948,01.071,551
2022-09-04T09:52:21,42.805,6.029,CST-1368DR,4595,5157,11948,01.071,551
2022-09-04T09:55:23,42.805,6.029,CST-1368DR,4595,5150,11933,01.076,551
2022-09-04T09:58:24,42.805,6.029,CST-1368DR,4595,5154,11942,01.073,551
2022-09-04T10:01:26,42.805,6.029,CST-1368DR,4595,5149,11929,01.077,551
2022-09-04T10:04:28,42.805,6.029,CST-1368DR,4595,5145,11921,01.080,551
2022-09-04T10:07:29,42.805,6.029,CST-1368DR,4595,5152,11936,01.075,551
2022-09-04T10:10:31,42.805,6.029,CST-1368DR,4595,5153,11938,01.074,551
2022-09-04T10:13:32,42.805,6.029,CST-1368DR,4595,5151,11936,01.075,551
2022-09-04T10:16:34,42.805,6.029,CST-1368DR,4595,5154,11942,01.073,551
2022-09-04T10:19:35,42.805,6.029,CST-1368DR,4595,5157,11949,01.071,551
2022-09-04T10:22:37,42.805,6.029,CST-1368DR,4595,5157,11949,01.071,551
2022-09-04T10:25:39,42.805,6.029,CST-1368DR,4595,5159,11953,01.069,551
2022-09-04T10:28:40,42.805,6.029,CST-1368DR,4595,5159,11954,01.069,551
2022-09-04T10:31:42,42.805,6.029,CST-1368DR,4595,5156,11946,01.072,551
2022-09-04T10:34:43,42.805,6.029,CST-1368DR,4595,5149,11931,01.077,551
2022-09-04T10:37:45,42.805,6.029,CST-1368DR,4595,5149,11930,01.077,551
2022-09-04T10:40:47,42.805,6.029,CST-1368DR,4595,5150,11933,01.076,551
2022-09-04T10:43:48,42.805,6.029,CST-1368DR,4595,5155,11944,01.072,551
2022-09-04T10:46:50,42.805,6.029,CST-1368DR,4595,5152,11937,01.075,551
2022-09-04T10:49:51,42.805,6.029,CST-1368DR,4595,5152,11936,01.075,551
2022-09-04T10:52:53,42.805,6.029,CST-1368DR,4595,5147,11925,01.079,551
2022-09-04T10:55:54,42.805,6.029,CST-1368DR,4595,5150,11933,01.076,551
2022-09-04T10:58:56,42.805,6.029,CST-1368DR,4595,5156,11946,01.072,551
2022-09-04T11:01:58,42.805,6.029,CST-1368DR,4595,5149,11929,01.077,551
2022-09-04T11:04:59,42.805,6.029,CST-1368DR,4595,5153,11940,01.074,551
2022-09-04T11:08:01,42.805,6.029,CST-1368DR,4595,5155,11944,01.072,551
2022-09-04T11:11:02,42.805,6.029,CST-1368DR,4595,5152,11937,01.075,551
2022-09-04T11:14:04,42.805,6.029,CST-1368DR,4595,5150,11933,01.076,551
2022-09-04T11:17:05,42.805,6.029,CST-1368DR,4595,5151,11935,01.075,551
2022-09-04T11:20:07,42.805,6.029,CST-1368DR,4595,5148,11927,01.078,551
2022-09-04T11:23:09,42.805,6.029,CST-1368DR,4595,5162,11959,01.067,551
2022-09-04T11:26:10,42.805,6.029,CST-1368DR,4595,5146,11923,01.079,551
2022-09-04T11:29:12,42.805,6.029,CST-1368DR,4595,5151,11935,01.075,551
2022-09-04T11:32:13,42.805,6.029,CST-1368DR,4595,5150,11933,01.076,551
2022-09-04T11:35:15,42.805,6.029,CST-1368DR,4595,5152,11937,01.075,551
2022-09-04T11:38:17,42.805,6.029,CST-1368DR,4595,5157,11948,01.071,551
2022-09-04T11:41:18,42.805,6.029,CST-1368DR,4595,5158,11950,01.070,551
2022-09-04T11:44:20,42.805,6.029,CST-1368DR,4595,5158,11951,01.070,551
2022-09-04T11:47:21,42.805,6.029,CST-1368DR,4595,5150,11933,01.076,551
2022-09-04T11:50:23,42.805,6.029,CST-1368DR,4595,5149,11930,01.077,551
2022-09-04T11:53:24,42.805,6.029,CST-1368DR,4595,5154,11941,01.073,551
2022-09-04T11:56:26,42.805,6.029,CST-1368DR,4595,5154,11941,01.073,551
2022-09-04T11:59:28,42.805,6.029,CST-1368DR,4595,5151,11936,01.075,551
2022-09-04T12:02:29,42.805,6.029,CST-1368DR,4595,5155,11944,01.072,551
2022-09-04T12:05:31,42.805,6.029,CST-1368DR,4595,5153,11938,01.074,551
2022-09-04T12:08:32,42.805,6.029,CST-1368DR,4595,5157,11949,01.071,551
2022-09-04T12:11:34,42.805,6.029,CST-1368DR,4595,5155,11945,01.072,551
2022-09-04T12:14:36,42.805,6.029,CST-1368DR,4594,5151,11937,01.075,551
2022-09-04T12:17:37,42.805,6.029,CST-1368DR,4595,5159,11953,01.069,551
2022-09-04T12:20:39,42.805,6.029,CST-1368DR,4595,5153,11938,01.074,551
2022-09-04T12:23:40,42.805,6.029,CST-1368DR,4594,5152,11940,01.074,551
2022-09-04T12:26:42,42.805,6.029,CST-1368DR,4594,5143,11919,01.081,551
2022-09-04T12:29:43,42.805,6.029,CST-1368DR,4595,5149,11931,01.077,551
2022-09-04T12:32:45,42.805,6.029,CST-1368DR,4594,5147,11929,01.077,551
2022-09-04T12:35:47,42.805,6.029,CST-1368DR,4594,5149,11933,01.076,551
2022-09-04T12:38:48,42.805,6.029,CST-1368DR,4594,5148,11929,01.077,551
2022-09-04T12:41:50,42.805,6.029,CST-1368DR,4595,5159,11953,01.069,551
2022-09-04T12:44:51,42.805,6.029,CST-1368DR,4594,5152,11939,01.074,551
2022-09-04T12:47:53,42.805,6.029,CST-1368DR,4595,5151,11934,01.076,551
2022-09-04T12:50:54,42.805,6.029,CST-1368DR,4594,5153,11941,01.073,551
2022-09-04T12:53:56,42.805,6.029,CST-1368DR,4595,5155,11944,01.072,550
2022-09-04T12:56:58,42.805,6.029,CST-1368DR,4594,5151,11936,01.075,551
2022-09-04T12:59:59,42.805,6.029,CST-1368DR,4594,5147,11927,01.078,551
2022-09-04T13:03:01,42.805,6.029,CST-1368DR,4595,5150,11933,01.076,551
2022-09-04T13:06:02,42.805,6.029,CST-1368DR,4594,5154,11944,01.072,551
2022-09-04T13:09:04,42.805,6.029,CST-1368DR,4595,5145,11922,01.080,551
2022-09-04T13:12:06,42.805,6.029,CST-1368DR,4594,5147,11927,01.078,551
2022-09-04T13:15:07,42.805,6.029,CST-1368DR,4594,5146,11926,01.078,551
2022-09-04T13:18:09,42.805,6.029,CST-1368DR,4594,5144,11921,01.080,551
2022-09-04T13:21:10,42.805,6.029,CST-1368DR,4594,5149,11932,01.076,551
2022-09-04T13:24:12,42.805,6.029,CST-1368DR,4594,5141,11914,01.082,551
2022-09-04T13:27:13,42.805,6.029,CST-1368DR,4594,5143,11919,01.081,551
2022-09-04T13:30:15,42.805,6.029,CST-1368DR,4594,5140,11911,01.083,551
2022-09-04T13:33:17,42.805,6.029,CST-1368DR,4594,5141,11914,01.082,551
2022-09-04T13:36:18,42.805,6.029,CST-1368DR,4594,5137,11904,01.086,551
2022-09-04T13:39:20,42.805,6.029,CST-1368DR,4595,5148,11928,01.078,551
2022-09-04T13:42:21,42.805,6.029,CST-1368DR,4595,5143,11915,01.082,551
2022-09-04T13:45:23,42.805,6.029,CST-1368DR,4595,5145,11920,01.080,551
2022-09-04T13:48:24,42.805,6.029,CST-1368DR,4595,5141,11912,01.083,551
2022-09-04T13:51:26,42.805,6.029,CST-1368DR,4594,5140,11912,01.083,551
2022-09-04T13:54:28,42.805,6.029,CST-1368DR,4595,5144,11918,01.081,551
2022-09-04T13:57:29,42.805,6.029,CST-1368DR,4595,5144,11918,01.081,551
2022-09-04T14:00:31,42.805,6.029,CST-1368DR,4595,5144,11919,01.081,551
2022-09-04T14:03:32,42.805,6.029,CST-1368DR,4595,5154,11942,01.073,551
2022-09-04T14:06:34,42.805,6.029,CST-1368DR,4594,5144,11921,01.080,551
2022-09-04T14:09:36,42.805,6.029,CST-1368DR,4594,5139,11909,01.084,551
2022-09-04T14:12:37,42.805,6.029,CST-1368DR,4594,5142,11916,01.082,551
2022-09-04T14:15:39,42.805,6.029,CST-1368DR,4594,5147,11927,01.078,551
2022-09-04T14:18:40,42.805,6.029,CST-1368DR,4595,5143,11915,01.082,551
2022-09-04T14:21:42,42.805,6.029,CST-1368DR,4594,5133,11896,01.088,551
2022-09-04T14:24:43,42.805,6.029,CST-1368DR,4594,5143,11919,01.081,551
2022-09-04T14:27:45,42.805,6.029,CST-1368DR,4594,5142,11917,01.081,551
2022-09-04T14:30:47,42.805,6.029,CST-1368DR,4594,5144,11922,01.080,551
2022-09-04T14:33:48,42.805,6.029,CST-1368DR,4594,5144,11921,01.080,551
2022-09-04T14:36:50,42.805,6.029,CST-1368DR,4594,5141,11914,01.082,551
2022-09-04T14:39:51,42.805,6.029,CST-1368DR,4594,5136,11903,01.086,551
2022-09-04T14:42:53,42.805,6.029,CST-1368DR,4594,5109,11841,01.107,551
2022-09-04T14:45:54,42.805,6.029,CST-1368DR,4594,5139,11910,01.084,551
2022-09-04T14:48:56,42.805,6.029,CST-1368DR,4594,5139,11909,01.084,551
2022-09-04T14:51:58,42.805,6.029,CST-1368DR,4594,5138,11907,01.085,551
2022-09-04T14:54:59,42.805,6.029,CST-1368DR,4594,5142,11916,01.082,551
2022-09-04T14:58:01,42.805,6.029,CST-1368DR,4594,5143,11919,01.081,551
2022-09-04T15:01:02,42.805,6.029,CST-1368DR,4594,5141,11914,01.082,551
2022-09-04T15:04:04,42.805,6.029,CST-1368DR,4594,5140,11911,01.083,551
2022-09-04T15:07:06,42.805,6.029,CST-1368DR,4594,5141,11914,01.082,551
2022-09-04T15:10:07,42.805,6.029,CST-1368DR,4594,5142,11916,01.082,551
2022-09-04T15:13:09,42.805,6.029,CST-1368DR,4594,5144,11922,01.080,551
2022-09-04T15:16:10,42.805,6.029,CST-1368DR,4594,5145,11922,01.080,551
2022-09-04T15:19:12,42.805,6.029,CST-1368DR,4594,5141,11913,01.083,551
2022-09-04T15:22:13,42.805,6.029,CST-1368DR,4594,5142,11917,01.081,551
2022-09-04T15:25:15,42.805,6.029,CST-1368DR,4594,5139,11910,01.084,551
2022-09-04T15:28:17,42.805,6.029,CST-1368DR,4594,5145,11923,01.079,551
2022-09-04T15:31:18,42.805,6.029,CST-1368DR,4594,5133,11896,01.088,551
2022-09-04T15:34:20,42.805,6.029,CST-1368DR,4594,5139,11908,01.084,551
2022-09-04T15:37:21,42.805,6.029,CST-1368DR,4594,5139,11910,01.084,551
2022-09-04T15:40:23,42.805,6.029,CST-1368DR,4594,5130,11888,01.091,551
2022-09-04T15:43:25,42.805,6.029,CST-1368DR,4594,5139,11910,01.084,551
2022-09-04T15:46:26,42.805,6.029,CST-1368DR,4594,5140,11913,01.083,551
2022-09-04T15:49:28,42.805,6.029,CST-1368DR,4594,5139,11909,01.084,551
2022-09-04T15:52:29,42.805,6.029,CST-1368DR,4594,5140,11911,01.083,551
2022-09-04T15:55:31,42.805,6.029,CST-1368DR,4594,5139,11910,01.084,551
2022-09-04T15:58:32,42.805,6.029,CST-1368DR,4594,5120,11864,01.099,551
2022-09-04T16:01:34,42.805,6.029,CST-1368DR,4594,5147,11927,01.078,551
2022-09-04T16:04:36,42.805,6.029,CST-1368DR,4594,5141,11914,01.082,551
2022-09-04T16:07:37,42.805,6.029,CST-1368DR,4594,5135,11900,01.087,551
2022-09-04T16:10:39,42.805,6.029,CST-1368DR,4594,5137,11905,01.085,551
2022-09-04T16:13:40,42.805,6.029,CST-1368DR,4594,5138,11906,01.085,551
2022-09-04T16:16:42,42.805,6.029,CST-1368DR,4594,5132,11893,01.089,551
2022-09-04T16:19:43,42.805,6.029,CST-1368DR,4594,5132,11892,01.090,551
2022-09-04T16:22:45,42.805,6.029,CST-1368DR,4594,5131,11891,01.090,551
2022-09-04T16:25:47,42.805,6.029,CST-1368DR,4594,5140,11913,01.083,551
2022-09-04T16:28:48,42.805,6.029,CST-1368DR,4594,5132,11892,01.090,551
2022-09-04T16:31:50,42.805,6.029,CST-1368DR,4594,5129,11885,01.092,551
2022-09-04T16:34:51,42.805,6.029,CST-1368DR,4594,5137,11904,01.086,551
2022-09-04T16:37:53,42.805,6.029,CST-1368DR,4594,5138,11907,01.085,551